Hourly Data Report for September 09, 2018

SHEARWATER RCS
NOVA SCOTIA
Current Station Operator: ECCC - MSC

44°37'47.000" N
63°30'48.000" W
24.00 m
8205092
71264
AAW

Download Data

Hourly Data (September 2018)
Hourly Data Report for September 9, 2018
TIME Temp Definition
°C
Dew Point Definition
°C
Rel Hum Definition
%
Wind Dir Definition
10's deg

Wind Spd Definition
km/h
Visibility Definition
km
Stn Press Definition
kPa
Hmdx Definition


Wind Chill Definition


Weather Definition


00:00 8.8 5.3 79 33 2   101.88     LegendNANA
01:00 8.0 5.3 83 33 5   101.90     LegendNANA
02:00 9.5 5.7 77 34 6   101.91     LegendNANA
03:00 9.0 5.7 80 34 5   101.91     LegendNANA
04:00 9.4 6.1 80 33 9   101.92     LegendNANA
05:00 8.1 5.8 86 32 6   101.95     LegendNANA
06:00 8.1 6.4 89 32 8   101.99     LegendNANA
07:00 10.0 7.1 82 33 9   102.04     LegendNANA
08:00 13.2 7.3 67 33 11   102.08     LegendNANA
09:00 15.3 6.5 56 33 10   102.11     LegendNANA
10:00 15.1 4.0 48 32 10   102.15     LegendNANA
11:00 16.9 3.1 40 36 11   102.16     LegendNANA
12:00 17.2 3.1 39 33 9   102.15     LegendNANA
13:00 17.8 2.1 35 3 9   102.14     LegendNANA
14:00 18.8 3.9 37 34 8   102.11     LegendNANA
15:00 17.7 3.6 39 2 11   102.12     LegendNANA
16:00 19.0 2.6 34 34 10   102.12     LegendNANA
17:00 17.2 3.2 39 35 8   102.16     LegendNANA
18:00 17.5 3.7 40 1 11   102.22     LegendNANA
19:00 15.2 4.6 49 36 9   102.28     LegendNANA
20:00 14.2 4.8 53 2 12   102.39     LegendNANA
21:00 13.4 6.0 61 3 15   102.46     LegendNANA
22:00 12.2 6.5 68 3 14   102.53     LegendNANA
23:00 11.8 7.0 72 4 13   102.58     LegendNANA

Notes on Data Quality.

Legend

  • E = Estimated
  • M = Missing
  • NA = Not Available*
  • [empty] = Indicates an unobserved value
Date modified: